Vorticity
96 43 13 -37 -0 46 12 0 22 -6 12 2 -1 18 -8 33 8 6 6 12 6 6 2 5 4 4 2 4 5 3 7 2 2 5 12 22 26 28 24 16 6 9 11 12 13 13 9 10 13 11 11 12 13 12
105 33 -23 -17 19 -3 -10 14 12 7 22 7 6 15 16 32 17 9 9 -3 12 9 2 5 4 7 5 3 6 9 1 5 6 4 -0 7 8 11 20 33 28 18 9 7 7 10 7 9 13 11 12 11 10 10
99 16 -13 12 20 23 -1 -11 5 19 -6 2 17 1 10 14 9 8 13 6 11 6 7 6 5 5 7 6 5 7 9 3 6 4 9 -1 10 8 10 10 15 26 23 17 13 10 5 8 10 9 8 8 6 6
86 13 -24 28 12 -7 8 22 -16 -6 21 19 0 -1 3 21 12 6 9 -1 0 10 6 9 8 4 6 9 8 8 9 9 5 3 7 4 3 7 8 6 11 14 16 17 20 21 17 13 10 11 9 6 6 6
79 4 -31 28 2 7 4 22 1 16 10 19 0 15 8 8 2 7 6 10 13 8 9 6 6 5 9 8 7 8 13 7 8 11 7 7 11 6 8 11 8 7 10 16 13 11 12 13 11 12 12 14 15 16
63 16 -13 2 -3 5 26 7 20 12 -2 23 4 -7 -8 22 7 9 5 6 12 10 3 8 5 7 7 6 9 9 11 8 8 11 7 8 11 7 7 9 8 8 7 7 12 19 14 11 13 16 13 8 7 8
67 11 -22 11 -7 33 -3 -11 9 13 -11 20 5 9 10 28 2 5 5 7 10 10 9 7 5 6 5 8 9 12 10 6 10 10 8 7 11 10 8 7 3 7 6 3 2 0 2 5 9 11 12 10 7 5
56 4 -6 -24 11 5 2 4 3 9 14 3 -1 0 22 25 3 5 6 6 9 7 7 7 8 8 5 5 10 11 8 8 5 9 8 8 9 5 11 13 16 15 12 9 6 5 5 4 3 2 1 0 2 1
53 10 -10 4 -6 1 8 1 6 7 -1 3 2 -1 31 12 -0 -1 3 6 9 0 9 6 5 8 6 5 9 11 8 8 6 5 7 11 1 7 4 7 6 7 8 8 9 10 9 7 4 3 2 4 4 3
45 20 -13 -0 -3 11 -0 5 12 4 9 -22 3 10 18 22 12 11 10 4 5 4 3 3 4 4 11 9 4 14 6 3 3 -0 5 7 6 3 6 10 12 10 11 10 10 12 10 9 8 9 8 7 7 4
29 11 11 -7 -10 -0 8 21 5 12 13 12 2 -4 22 26 11 6 7 3 3 2 6 4 7 5 2 6 4 4 3 1 4 1 6 8 3 8 7 8 9 9 12 10 13 15 16 17 18 17 17 17 18 17
29 8 8 -7 -16 1 9 15 -6 4 15 4 -1 25 17 3 8 8 4 5 3 2 7 6 5 4 5 6 5 4 6 6 4 7 7 6 7 6 7 7 7 11 10 11 12 14 12 12 10 10 9 9 10 9
21 6 7 5 6 -1 2 3 18 3 6 -0 17 6 18 19 0 2 13 10 10 8 4 3 3 3 5 3 5 6 6 5 7 3 8 8 8 5 5 6 6 9 8 9 11 11 9 6 5 3 18 23 24 29
16 10 5 7 9 0 -8 13 6 20 6 4 3 4 8 7 7 25 5 6 -3 3 4 5 4 4 3 4 5 5 5 9 4 7 7 9 6 3 4 3 9 8 8 11 10 6 6 8 34 30 23 26 25 28
8 13 8 2 3 7 8 16 19 15 14 5 6 12 11 14 2 7 14 7 7 8 5 3 3 7 6 4 7 8 7 3 2 5 7 6 4 3 3 5 9 7 9 10 4 6 13 31 26 18 18 29 24 26
12 3 -34 2 15 12 15 -5 11 5 4 7 7 -1 12 6 6 12 12 12 9 9 6 6 7 5 9 8 6 13 6 1 4 6 7 5 2 2 5 8 8 7 12 6 5 9 32 27 13 9 16 27 27 16
10 3 -8 -2 17 15 6 -2 7 4 -0 6 3 16 23 2 11 6 7 7 8 8 10 14 10 9 9 7 12 15 11 7 5 7 6 3 3 6 8 7 5 11 10 6 4 25 36 14 6 6 15 28 30 14
7 6 4 14 12 12 5 2 11 5 18 21 13 7 7 3 -3 -1 -1 6 5 11 10 9 5 9 11 6 7 5 7 7 8 7 5 4 5 7 7 3 11 10 6 3 9 36 30 10 4 5 10 23 14 26
11 1 -12 15 13 17 -4 9 1 6 -1 12 12 7 -2 7 6 3 10 8 7 5 5 8 8 11 9 4 4 9 8 9 7 6 4 6 7 5 3 9 9 9 5 4 30 37 17 7 2 10 9 15 32 28
-4 -2 8 11 15 11 20 7 0 6 13 16 5 10 -2 3 3 13 8 6 6 4 6 8 9 11 12 11 8 6 6 7 4 1 5 8 4 4 8 7 8 6 1 25 38 24 10 5 4 12 12 14 34 26
8 14 18 6 8 2 2 4 4 8 12 10 3 2 -1 4 10 8 8 6 4 6 12 9 9 8 7 6 2 4 6 3 1 4 6 4 2 5 7 9 8 1 14 33 31 21 8 5 11 16 13 15 29 30
9 17 7 9 -2 4 -1 -1 11 4 6 3 10 7 5 9 13 5 4 4 5 6 8 9 8 7 6 3 6 6 4 2 6 9 7 5 4 9 10 8 2 5 35 38 24 6 10 15 18 18 12 18 34 31
8 11 7 -1 4 9 -0 2 6 7 5 9 7 -3 20 5 9 2 6 5 8 11 9 7 8 6 5 7 5 6 3 5 8 5 6 3 6 12 11 2 6 39 48 17 7 14 15 16 15 11 13 23 42 29
7 9 9 10 2 3 1 0 0 3 4 5 12 30 11 9 5 6 5 5 11 12 10 6 4 5 6 6 6 3 5 6 7 5 1 5 12 12 4 3 32 47 18 10 16 13 5 8 7 5 15 35 45 30
2 6 2 3 3 7 2 9 9 2 -2 19 14 11 9 3 3 1 6 9 12 8 5 4 5 7 7 6 2 4 7 8 6 2 3 13 12 7 -1 39 49 16 11 17 6 1 7 10 2 8 15 47 45 32
4 -8 2 -6 5 14 2 1 3 13 32 12 5 9 7 5 5 11 10 10 7 4 4 6 6 6 3 1 1 10 10 4 2 7 11 11 6 -4 38 52 21 15 13 2 9 18 19 15 12 12 31 50 47 33
10 4 5 7 6 3 -4 -2 4 31 15 5 3 3 5 6 15 11 8 7 5 5 6 6 4 3 2 1 10 10 4 2 6 11 9 8 -5 41 48 18 16 8 3 13 17 19 20 20 24 13 52 50 40 25
-0 -2 -1 -2 -4 -1 7 10 15 8 1 5 5 5 8 14 9 7 6 5 6 8 5 4 3 2 2 9 10 5 4 8 11 9 5 -1 43 49 12 16 8 5 9 13 24 33 32 26 12 35 48 32 37 19
1 6 4 1 5 10 16 3 11 8 9 8 12 14 10 10 7 5 4 6 5 4 4 4 3 1 9 9 5 6 7 9 7 6 -2 35 50 7 17 8 7 12 12 19 30 23 26 13 26 41 40 37 45 11
1 1 2 20 24 20 7 7 8 7 5 5 6 11 9 6 4 4 3 3 3 5 5 6 0 8 8 5 6 6 12 7 9 0 18 53 18 15 9 7 14 11 15 23 28 22 24 14 39 34 36 38 20 -1
4 26 15 6 2 17 5 6 8 11 5 9 11 8 5 5 2 1 2 4 3 7 5 2 9 7 6 6 8 14 8 8 4 5 53 30 14 11 7 12 11 15 19 24 27 31 22 16 39 19 20 18 23 29
7 13 9 11 9 10 13 10 4 8 11 9 5 4 4 2 2 2 3 5 7 3 3 9 6 6 7 8 12 10 10 4 2 42 40 13 15 9 10 14 13 8 11 15 24 38 28 15 36 15 18 19 16 14
13 8 3 18 16 12 9 6 10 9 6 5 5 4 3 1 2 5 6 7 0 6 6 5 7 7 10 12 11 8 7 1 30 51 11 19 8 8 13 12 6 5 4 4 4 24 41 31 15 29 25 6 12 22
Height
5462 5461 5467 5474 5477 5482 5491 5502 5514 5525 5535 5541 5550 5561 5567 5574 5582 5590 5596 5602 5608 5611 5615 5619 5621 5623 5623 5623 5624 5624 5623 5620 5618 5616 5615 5615 5614 5616 5616 5617 5616 5617 5618 5619 5618 5616 5615 5612 5615 5618 5616 5614 5613 5612
5462 5463 5470 5478 5482 5485 5493 5503 5518 5527 5536 5545 5552 5560 5566 5573 5580 5586 5593 5599 5605 5610 5613 5616 5618 5620 5621 5621 5622 5622 5622 5621 5619 5617 5615 5614 5613 5612 5612 5612 5612 5612 5613 5613 5611 5609 5607 5608 5611 5609 5608 5606 5605 5603
5459 5466 5472 5478 5483 5489 5498 5506 5516 5525 5535 5543 5553 5558 5564 5573 5578 5585 5592 5597 5602 5606 5610 5613 5616 5618 5619 5619 5620 5621 5620 5619 5618 5617 5615 5615 5613 5611 5610 5608 5607 5605 5604 5604 5604 5604 5601 5604 5603 5602 5600 5599 5598 5596
5459 5466 5473 5480 5486 5492 5499 5508 5518 5526 5534 5543 5551 5557 5563 5571 5577 5583 5588 5593 5599 5604 5607 5610 5613 5615 5616 5617 5618 5619 5618 5617 5617 5615 5613 5612 5612 5611 5608 5607 5605 5602 5600 5599 5597 5596 5596 5595 5594 5593 5591 5588 5586 5585
5455 5462 5473 5480 5487 5493 5500 5509 5518 5527 5534 5541 5549 5555 5562 5569 5576 5581 5587 5592 5597 5603 5605 5608 5610 5612 5614 5615 5615 5617 5616 5615 5614 5613 5611 5610 5609 5607 5605 5604 5602 5599 5597 5595 5592 5589 5588 5586 5584 5582 5581 5578 5576 5574
5450 5461 5472 5478 5482 5491 5499 5511 5520 5527 5534 5540 5546 5553 5560 5569 5575 5580 5585 5591 5595 5599 5603 5605 5607 5609 5611 5612 5613 5614 5613 5612 5612 5610 5609 5607 5606 5605 5602 5600 5598 5596 5593 5590 5588 5585 5582 5580 5577 5573 5570 5568 5566 5563
5444 5457 5468 5477 5483 5491 5499 5509 5517 5524 5533 5536 5544 5551 5558 5564 5571 5577 5583 5588 5592 5596 5600 5601 5604 5607 5607 5609 5610 5611 5611 5609 5608 5608 5606 5605 5603 5602 5599 5596 5594 5592 5589 5586 5583 5580 5577 5574 5570 5567 5564 5560 5557 5553
5438 5451 5464 5475 5482 5490 5500 5508 5516 5524 5531 5536 5542 5549 5556 5563 5569 5575 5581 5586 5589 5594 5597 5599 5602 5604 5605 5606 5608 5608 5607 5606 5605 5604 5603 5601 5599 5597 5596 5593 5590 5587 5584 5580 5576 5572 5569 5564 5560 5557 5554 5550 5546 5542
5433 5446 5460 5471 5479 5490 5499 5507 5515 5522 5531 5535 5541 5548 5555 5561 5568 5573 5579 5583 5587 5593 5594 5597 5600 5602 5602 5603 5604 5604 5604 5603 5602 5601 5599 5597 5595 5592 5589 5585 5582 5578 5575 5570 5567 5563 5559 5555 5550 5545 5541 5536 5532 5528
5426 5441 5456 5467 5479 5490 5498 5507 5512 5520 5530 5536 5543 5549 5554 5559 5565 5570 5574 5580 5585 5588 5591 5594 5597 5598 5600 5599 5599 5601 5600 5599 5597 5597 5595 5592 5588 5585 5581 5577 5573 5569 5565 5560 5556 5551 5548 5543 5538 5532 5526 5521 5516 5511
5420 5436 5452 5465 5476 5488 5498 5505 5512 5523 5529 5537 5543 5547 5553 5557 5563 5568 5573 5578 5582 5586 5589 5591 5593 5595 5596 5597 5597 5597 5596 5595 5594 5593 5589 5586 5582 5578 5574 5569 5564 5559 5554 5548 5544 5539 5534 5529 5524 5517 5512 5504 5498 5491
5415 5433 5449 5463 5474 5486 5494 5503 5513 5522 5528 5535 5540 5544 5549 5555 5561 5567 5572 5576 5580 5583 5586 5588 5590 5591 5592 5593 5593 5592 5591 5590 5589 5586 5582 5579 5575 5570 5566 5560 5555 5549 5542 5535 5530 5524 5518 5512 5506 5499 5492 5484 5477 5469
5412 5430 5447 5460 5472 5482 5491 5500 5509 5517 5524 5531 5537 5543 5548 5554 5559 5564 5570 5575 5579 5581 5583 5585 5587 5588 5588 5588 5587 5586 5586 5585 5582 5579 5576 5571 5566 5561 5555 5550 5544 5537 5530 5523 5515 5509 5502 5496 5486 5476 5466 5455 5448 5440
5410 5429 5445 5457 5469 5479 5489 5499 5508 5515 5522 5530 5538 5543 5549 5554 5559 5565 5568 5571 5574 5577 5579 5581 5582 5583 5583 5582 5581 5580 5579 5578 5575 5572 5568 5563 5557 5551 5546 5540 5533 5525 5517 5509 5502 5494 5486 5477 5467 5453 5441 5432 5423 5415
5409 5426 5441 5454 5465 5475 5486 5497 5506 5512 5519 5529 5537 5542 5547 5553 5556 5560 5565 5568 5571 5574 5576 5577 5578 5579 5578 5577 5575 5573 5573 5571 5568 5563 5559 5553 5548 5542 5536 5529 5521 5513 5504 5495 5486 5478 5468 5457 5446 5436 5424 5415 5405 5397
5404 5419 5437 5451 5462 5472 5483 5495 5502 5508 5517 5527 5535 5540 5546 5550 5554 5559 5563 5565 5569 5570 5571 5573 5573 5573 5572 5571 5568 5567 5567 5565 5561 5556 5550 5544 5538 5532 5525 5517 5508 5499 5490 5482 5472 5462 5451 5441 5431 5421 5410 5401 5392 5385
5400 5419 5435 5447 5458 5469 5481 5491 5500 5506 5516 5524 5530 5536 5543 5547 5550 5555 5559 5562 5565 5566 5568 5569 5568 5567 5564 5563 5562 5561 5560 5557 5553 5547 5542 5536 5530 5522 5514 5505 5496 5486 5477 5468 5458 5446 5435 5426 5418 5408 5400 5390 5382 5375
5402 5419 5434 5443 5454 5465 5477 5489 5498 5506 5515 5522 5528 5534 5539 5543 5547 5551 5555 5558 5560 5562 5563 5562 5560 5559 5558 5557 5557 5556 5553 5549 5545 5539 5533 5527 5519 5511 5503 5493 5483 5473 5463 5453 5443 5432 5422 5414 5406 5397 5389 5382 5375 5368
5403 5420 5434 5444 5457 5470 5478 5488 5497 5505 5513 5519 5524 5529 5535 5540 5543 5548 5552 5555 5556 5556 5555 5554 5553 5552 5552 5552 5552 5550 5546 5541 5536 5530 5523 5517 5509 5501 5490 5480 5470 5460 5449 5438 5428 5418 5410 5402 5395 5387 5379 5372 5366 5360
5405 5420 5431 5442 5455 5467 5478 5487 5494 5501 5508 5515 5520 5526 5532 5536 5540 5544 5547 5549 5549 5549 5549 5548 5546 5546 5547 5547 5545 5542 5538 5533 5528 5521 5514 5506 5498 5488 5478 5468 5458 5447 5437 5425 5414 5405 5399 5393 5384 5376 5369 5363 5357 5352
5400 5412 5426 5441 5453 5464 5474 5483 5491 5498 5505 5512 5517 5523 5528 5532 5536 5540 5542 5543 5542 5543 5544 5542 5541 5541 5541 5540 5537 5534 5530 5526 5520 5513 5505 5497 5487 5476 5466 5455 5444 5434 5422 5412 5404 5397 5389 5382 5374 5366 5359 5353 5347 5342
5398 5416 5432 5441 5452 5463 5473 5482 5490 5497 5504 5510 5515 5521 5524 5529 5533 5535 5536 5536 5536 5537 5537 5537 5536 5536 5535 5533 5530 5526 5522 5517 5509 5501 5493 5485 5476 5464 5454 5443 5433 5423 5410 5398 5391 5386 5379 5371 5364 5356 5349 5343 5337 5333
5405 5418 5428 5440 5449 5458 5470 5479 5487 5494 5499 5505 5512 5516 5521 5525 5527 5529 5530 5530 5530 5531 5531 5530 5530 5530 5528 5525 5521 5518 5514 5507 5499 5491 5482 5473 5461 5450 5440 5429 5416 5406 5397 5389 5381 5374 5367 5360 5352 5345 5338 5331 5326 5323
5407 5415 5425 5435 5446 5458 5468 5476 5484 5491 5497 5502 5508 5513 5517 5520 5520 5522 5523 5524 5525 5525 5525 5525 5524 5523 5520 5516 5513 5509 5504 5497 5488 5479 5470 5462 5452 5441 5429 5417 5404 5393 5385 5380 5372 5365 5357 5349 5342 5334 5326 5319 5314 5313
5403 5413 5424 5434 5445 5457 5466 5475 5482 5490 5495 5500 5506 5509 5511 5513 5514 5517 5518 5518 5519 5520 5520 5519 5518 5515 5512 5508 5504 5500 5495 5486 5478 5470 5459 5451 5441 5431 5417 5403 5391 5384 5377 5370 5362 5355 5346 5338 5330 5323 5315 5307 5304 5304
5402 5413 5424 5434 5445 5457 5465 5473 5481 5487 5492 5497 5500 5503 5504 5507 5509 5511 5511 5513 5515 5515 5514 5513 5510 5507 5504 5500 5496 5491 5484 5476 5467 5458 5448 5438 5428 5418 5407 5396 5388 5379 5370 5362 5354 5346 5336 5327 5319 5311 5303 5296 5294 5296
5405 5415 5425 5436 5446 5455 5462 5470 5478 5483 5488 5491 5495 5496 5499 5502 5504 5506 5507 5509 5509 5509 5507 5506 5503 5499 5496 5492 5487 5481 5474 5465 5456 5446 5437 5426 5415 5404 5393 5387 5380 5371 5363 5353 5343 5333 5325 5316 5307 5300 5292 5288 5288 5291
5409 5419 5431 5441 5447 5454 5461 5469 5474 5479 5482 5486 5488 5491 5495 5498 5499 5501 5502 5503 5503 5502 5501 5498 5495 5492 5488 5484 5478 5471 5463 5453 5444 5433 5423 5411 5401 5391 5384 5377 5369 5362 5353 5344 5334 5323 5314 5306 5298 5291 5286 5285 5286 5289
5410 5418 5428 5437 5445 5454 5461 5466 5471 5474 5478 5480 5484 5487 5490 5492 5494 5495 5497 5497 5497 5495 5493 5491 5488 5484 5479 5475 5469 5461 5453 5445 5437 5426 5414 5403 5391 5384 5378 5370 5363 5354 5344 5334 5324 5315 5307 5300 5293 5287 5283 5282 5284 5288
5414 5423 5431 5440 5446 5452 5458 5461 5465 5468 5471 5476 5480 5482 5485 5487 5488 5490 5490 5490 5489 5487 5485 5483 5480 5475 5470 5464 5456 5448 5442 5435 5426 5416 5405 5395 5388 5381 5374 5366 5358 5349 5339 5329 5319 5311 5304 5298 5292 5287 5284 5284 5286 5289
5418 5427 5433 5439 5444 5448 5452 5456 5460 5464 5468 5472 5475 5477 5479 5481 5483 5483 5483 5483 5481 5480 5477 5474 5471 5466 5460 5454 5447 5440 5433 5425 5415 5405 5395 5388 5383 5377 5370 5363 5354 5345 5336 5326 5317 5309 5303 5298 5293 5290 5289 5288 5289 5289
5418 5424 5431 5436 5440 5444 5448 5453 5457 5460 5464 5467 5470 5472 5474 5475 5476 5476 5476 5475 5473 5471 5469 5465 5461 5456 5451 5445 5438 5431 5424 5414 5405 5395 5388 5383 5378 5371 5365 5358 5351 5344 5335 5326 5317 5309 5303 5299 5294 5292 5291 5290 5290 5291
5416 5422 5427 5430 5434 5439 5445 5449 5452 5456 5459 5463 5465 5467 5468 5469 5470 5470 5469 5467 5466 5463 5460 5456 5452 5447 5441 5435 5429 5422 5414 5405 5396 5389 5385 5379 5374 5367 5361 5356 5349 5342 5335 5328 5319 5311 5303 5298 5295 5292 5291 5290 5290 5290